Regional Weather Roundup
Issued by NWS

Home | Current Version | Previous Version | Text Only | Print | Product List | Glossary Off
Versions: 1 2 3 4 5 6 7 8 9 10 11 12 13 14 15 16 17 18 19 20 21 22 23 24 25 26 27 28 29 30 31 32 33 34 35 36 37 38 39 40 41 42 43 44 45 46 47 48 49 50

000
ASUS45 KSLC 280610
RWRUT

UTAH REGIONAL WEATHER ROUNDUP
NATIONAL WEATHER SERVICE SALT LAKE CITY UT
1200 AM MDT SAT MAR 28 2015

UTZ001>011-023>025-280700-

NORTHERN UTAH

CITY           SKY/WX    TMP DP  RH WIND       PRES   REMARKS
BRIGHAM CITY   CLEAR     48  36  62 CALM      30.16S
HILL AFB       CLEAR     54  30  39 E9        30.16S
LOGAN          CLEAR     46  37  71 SW5       30.16S
OGDEN          CLEAR     52  30  43 S10       30.14F
PROVO AIRPORT  CLEAR     48  34  57 CALM      30.18S
SALT LAKE CITY CLEAR     56  35  45 SE7       30.14S
VERNAL         CLEAR     51  28  41 W6        30.18S
WENDOVER       CLEAR     52  27  37 CALM      30.13S
HEBER CITY     CLEAR     36  28  75 SE3       30.23R
WEST JORDAN    CLEAR     52  36  54 CALM      30.17S

$$

UTZ012>022-026-027-280700-

SOUTHERN/CENTRAL UTAH

CITY           SKY/WX    TMP DP  RH WIND       PRES   REMARKS
BLANDING       CLEAR     48  20  33 NW12      30.30S
BRYCE CANYON   CLEAR     37  27  67 W10       30.35R WCI  30
CEDAR CITY     CLEAR     52  25  35 SE8       30.23S
DELTA          CLEAR     49  25  39 SW3       30.17S
HANKSVILLE     CLEAR     45  19  36 NE3       30.18S
MILFORD        CLEAR     46  26  45 SW8       30.19S
MOAB/CYNLANDS  CLEAR     50  21  32 W3        30.15R
PRICE          CLEAR     50  22  33 VRB3      30.22S
ST GEORGE      CLEAR     64  27  24 E6        30.13S
KANAB          CLEAR     43  27  52 NE5       30.26R

$$

REGIONAL REPORTS     COLORADO/ARIZONA

CITY           SKY/WX    TMP DP  RH WIND       PRES   REMARKS
CRAIG, CO      PTCLDY    40  30  67 SE6       30.22R
GRAND JUNCTION PTCLDY    50  25  37 E6        30.18R
RIFLE          CLEAR     45  28  51 CALM      30.22R
MONTROSE       CLEAR     49  25  39 SE9       30.26R
CORTEZ         CLEAR     37  22  54 E5        30.26R WCI  33
PAGE, AZ       CLEAR     64  21  19 SW5       30.16R
GRAND CANYON   CLEAR     32  20  61 CALM      30.32S
KINGMAN        CLEAR     51  25  36 SE7       30.15S
FLAGSTAFF      CLEAR     38  19  46 CALM      30.35S

$$

REGIONAL REPORTS    NEVADA/IDAHO/WYOMING

CITY           SKY/WX    TMP DP  RH WIND       PRES   REMARKS
LAS VEGAS, NV  CLEAR     73  26  17 SW9       30.02S
ELY            CLEAR     52  20  28 S12       30.22S
ELKO           CLEAR     46  28  49 CALM      30.14S
POCATELLO, ID  CLEAR     58  31  35 VRB3      30.09F
BURLEY         CLEAR     56  32  40 S9        30.06F
EVANSTON, WY   PTCLDY    46  24  42 S6        30.26F
ROCK SPRINGS   CLEAR     45  25  45 W8        30.23S
KEMMERER       CLEAR     39  30  70 N3        30.26S

$$



USA.gov is the U.S. government's official web portal to all federal, state and local government web resources and services.